{"data":{"norad_id":61059,"epoch":"2026-05-25T03:27:46.423584Z","epoch_age_seconds":66152,"freshness":"FRESH","line1":"1 61059U 24164K   26145.14428731 -.00000211  00000+0  31111-5 0  9992","line2":"2 61059  53.1590 294.6136 0000882 103.9648 256.1468 15.69711944 97427","mean_motion":15.69711944,"eccentricity":8.82e-5,"inclination_deg":53.159,"raan_deg":294.6136,"arg_perigee_deg":103.9648,"mean_anomaly_deg":256.1468,"bstar":3.1111e-6,"rev_number":9742,"period_min":91.73657660593,"perigee_km":359.12690834951,"apogee_km":360.31546653378,"semimajor_km":6737.8581874416,"source":"CELESTRAK","updated_at":"2026-05-25T13:38:19.355176Z"}}